Flag for Iran Weather past 2 weeks in Behbahan, Iran

Now
100 °F

Sunny.


Feels Like: 95 °F
Forecast: 79 / 109 °F
Wind: 16 mph from West

Location: Gach Saran Du Gunbadan

Current Time: Jul 28, 2014 at 1:47:38 PM

Latest Report: Jul 28, 2014 at 12:30 PM


Visibility: 10 mi

Pressure: 29.68 "Hg

Humidity: 9%

Dew point: 32 °F

Location of BehbahanLocation

Historic Weather in Behbahan — Graph

°F

Behbahan temperature yesterday

Maximum temperature yesterday: 108 °F (at 2:30 PM)
Minimum temperature yesterday: 82 °F (at 6:30 AM)
Average temperature yesterday: 99 °F

Past Weeks' High & Low Weather Summary

 TemperatureHumidityPressure
High115 °F (Jul 17, 1:30 PM)32% (Jul 21, 6:30 AM)29.74 "Hg (Jul 21, 6:30 AM)
Low75 °F (Jul 23, 5:30 AM)4% (Jul 17, 5:30 PM)29.53 "Hg (Jul 17, 6:30 PM)
Average98 °F13%29.62 "Hg
* Reported Jul 13 12:30 PM — Jul 28 12:30 PM, Behbahan, Weather by CustomWeather, © 2014

Note: Actual official high and low records may vary slightly from our data, if they occured in-between our weather recording intervals... More about our weather records

Advertising

Behbahan weather history for previous 24 hours

 ConditionsComfort  
Time TempWeatherWind HumidityBarometerVisibility
12:30 PM
Jul 28
100 °FSunny.16 mph9%29.68 "Hg10 mi
11:30 AM100 °FSunny.7 mph10%29.68 "Hg5 mi
10:30 AM97 °FSunny.5 mph11%29.68 "Hg5 mi
9:30 AM95 °FSunny.No wind11%29.68 "Hg5 mi
8:30 AM88 °FSunny.No wind17%29.68 "Hg5 mi
7:30 AM81 °FClear.No wind21%29.68 "Hg6 mi
6:30 AM79 °FClear.2 mph20%N/A5 mi
5:30 AM82 °FClear.No wind19%29.68 "Hg5 mi
3:30 AM86 °FClear.No wind15%29.68 "Hg5 mi
2:30 AM88 °FClear.5 mph15%29.68 "Hg5 mi
1:30 AM90 °FClear.5 mph13%29.68 "Hg5 mi
12:30 AM93 °FClear.9 mph11%29.71 "Hg5 mi
11:30 PM
Jul 27
95 °FClear.7 mph10%29.71 "Hg5 mi
9:30 PM99 °FSunny.5 mph7%29.71 "Hg5 mi
8:30 PM104 °FSunny.12 mph7%29.68 "Hg5 mi
7:30 PM104 °FSunny.12 mph7%29.68 "Hg10 mi
6:30 PM106 °FSunny.16 mph9%29.68 "Hg10 mi
5:30 PM108 °FSunny.9 mph8%29.68 "Hg10 mi
4:30 PM108 °FSunny.16 mph8%29.68 "Hg10 mi
3:30 PM108 °FSunny.12 mph9%29.71 "Hg10 mi
2:30 PM108 °FSunny.16 mph10%29.71 "Hg10 mi
1:30 PM106 °FSunny.14 mph11%29.74 "Hg10 mi
Weather by CustomWeather, © 2014

See weather overviewHow to use our weather pages